Location: Recife
(8.0585°S, 34.8848°W)
Time: 11:03:26
(UTC-03:00)

Vanguard 2 Rocket - Pass Details

Date: 22 April 2026
Orbit: 553 x 3286 km, 32.9° (Epoch: 8 May)

Event Time Altitude Azimuth Distance (km) Brightness Sun altitude
Rises 06:18:34 0° 234° (SW) 3,896 9.6 12.9°
Reaches altitude 10° 06:22:20 10° 212° (SSW) 3,368 9.4 13.8°
Maximum altitude 06:27:31 16° 176° (S) 3,466 9.8 15.0°
Drops below altitude 10° 06:34:24 10° 142° (SE) 4,675 10.9 16.6°
Sets 06:41:27 0° 124° (ESE) 6,306 11.8 18.3°
